Temperature
13 13 13 13 13 13 13 13 12 12 12 12 12 12 12 12 12 11 11 11 11 11 11 10 10 10 10 10 10 10 10 10 10 10 10 9 9 9 9 9 9 9 9
12 12 12 12 12 12 12 12 12 12 12 12 12 12 12 12 12 11 11 11 11 11 11 10 10 10 10 10 10 10 10 10 9 9 9 9 9 9 9 9 9 8 8
12 12 12 12 12 12 12 12 11 11 11 11 11 11 11 11 11 11 11 11 11 11 11 10 10 10 10 10 10 9 9 9 9 9 9 9 9 9 9 8 8 8 8
11 11 11 11 11 11 11 11 11 11 11 11 11 11 11 11 11 11 11 11 11 11 11 10 10 10 10 10 10 9 9 9 9 9 9 9 8 8 8 8 8 8 8
11 11 11 11 10 10 10 10 10 10 11 10 10 11 11 11 11 10 10 10 10 10 10 10 10 10 10 9 9 9 9 9 8 8 8 8 8 8 8 7 7 7 7
10 10 10 10 10 10 10 10 10 10 10 10 10 10 10 10 10 10 10 10 10 10 10 10 10 9 9 9 9 9 8 8 8 8 8 8 8 7 7 7 7 7 7
10 10 10 10 10 10 10 9 9 9 9 9 9 9 9 10 10 10 10 10 10 10 10 10 9 9 9 9 9 9 8 8 8 8 8 7 7 7 7 7 7 7 6
9 9 9 10 9 9 9 9 9 9 9 9 9 9 8 9 9 9 9 9 10 10 9 9 9 9 9 9 9 8 8 8 8 7 7 7 7 7 7 6 6 6 6
9 9 9 9 9 9 9 9 9 9 9 9 9 8 8 8 8 9 9 9 9 9 9 9 9 9 8 8 8 8 8 8 7 7 7 7 7 6 6 6 6 6 5
8 8 8 8 8 8 8 8 8 8 8 8 8 8 8 8 8 8 9 9 9 9 9 9 9 8 8 8 8 8 7 7 7 7 7 6 6 6 6 6 5 5 5
8 8 8 8 8 8 8 8 8 8 8 8 8 8 8 8 8 8 8 8 8 9 8 8 8 8 8 8 8 7 7 7 7 6 6 6 6 6 5 5 5 5 5
7 7 7 7 8 8 8 8 8 8 7 7 8 8 8 8 8 8 8 8 8 8 8 8 8 8 8 7 7 7 7 6 6 6 6 6 5 5 5 5 5 5 5
6 7 7 7 7 7 7 7 7 7 7 7 7 8 8 8 7 7 7 7 7 8 8 8 8 7 7 7 7 6 6 6 6 6 5 5 5 5 5 5 5 5 4
6 6 7 7 7 7 7 7 7 7 7 7 7 7 7 7 7 7 7 7 7 7 7 7 7 7 7 6 6 6 6 6 5 5 5 5 5 5 4 4 4 4 4
6 6 6 6 6 7 7 7 7 7 7 7 7 7 7 7 7 7 7 6 6 6 6 7 6 6 6 6 6 6 5 5 5 5 5 5 4 4 4 4 4 4 4
5 6 6 6 6 6 6 6 6 6 6 6 6 6 6 6 6 6 6 6 6 6 5 6 6 6 6 5 5 5 5 5 5 4 4 4 4 4 4 4 4 4 3
5 5 5 5 5 6 6 6 6 6 6 6 6 6 6 6 6 6 6 6 6 5 5 5 6 5 5 5 5 5 4 4 4 4 4 4 4 4 4 3 3 3 3
4 4 5 5 5 5 5 5 5 5 5 5 6 5 6 6 6 5 5 5 5 5 5 5 5 5 5 4 4 4 4 4 4 4 4 3 3 3 3 3 3 3 3
4 4 4 4 5 5 5 5 5 5 5 5 5 5 5 5 5 5 5 5 5 5 5 5 5 4 4 4 4 4 4 4 4 4 3 3 3 3 3 3 3 3 2
3 3 4 4 4 4 4 5 5 5 5 5 5 5 5 5 5 5 5 5 4 4 4 4 4 4 4 4 4 4 4 3 3 3 3 3 3 3 3 3 2 2 2
3 3 3 3 3 4 4 4 4 4 4 4 4 4 4 4 4 4 4 4 4 4 3 4 3 3 3 3 3 3 3 3 3 3 3 3 3 3 3 2 2 2 2
2 2 3 3 3 3 3 3 4 3 4 4 4 4 4 4 4 4 4 4 4 3 3 3 3 3 3 3 3 3 2 2 2 2 2 2 2 2 2 2 2 2 2
2 2 2 2 2 3 3 3 3 3 3 3 3 3 3 3 3 3 3 3 3 3 3 3 3 3 3 3 3 2 2 2 2 2 2 2 2 2 2 2 2 2 1
1 1 2 2 2 2 2 2 2 2 3 3 3 3 3 3 3 3 3 3 3 3 3 3 3 3 3 3 2 2 2 2 2 2 1 1 2 2 2 2 1 1 1
1 1 1 1 2 2 2 2 2 2 2 2 2 2 2 2 2 2 2 2 2 2 2 2 2 2 2 2 2 2 1 1 1 1 1 1 1 1 1 1 1 1 1
0 0 1 1 1 1 1 1 1 1 1 2 2 2 2 2 2 2 2 2 2 2 2 2 2 2 2 2 2 2 1 1 1 1 1 1 1 0 0 1 1 1 1
Wind_Speed
4 3 3 3 3 4 5 5 5 5 4 4 3 4 3 3 2 2 1 1 2 3 3 3 2 2 2 1 1 1 1 2 2 3 3 4 5 5 6 6 7 7 8
4 3 3 3 3 4 5 5 5 4 3 3 2 3 3 3 3 2 1 1 1 2 2 2 3 2 2 1 1 1 1 2 2 3 3 4 5 5 6 6 7 8 9
6 4 3 2 3 4 4 4 4 4 3 2 2 2 2 2 2 2 1 1 1 1 2 2 2 2 2 2 2 2 2 2 3 3 4 5 5 6 7 7 8 8 9
7 5 3 2 3 4 4 3 3 3 2 2 1 1 1 2 1 1 2 1 1 1 1 1 1 2 2 2 3 2 2 2 3 3 4 5 5 6 7 8 8 9 10
5 5 4 3 4 3 3 2 2 3 3 3 2 1 1 1 1 2 2 1 2 2 1 1 1 2 3 3 3 3 3 3 3 4 4 5 5 7 7 8 9 9 10
4 5 4 4 4 3 3 2 2 1 3 3 2 0 1 1 1 2 2 1 2 2 2 1 1 2 3 4 4 3 4 4 4 4 5 5 6 7 8 9 9 10 11
4 4 4 4 4 4 4 4 3 2 2 3 2 0 2 2 2 2 2 2 2 3 3 2 1 1 2 3 4 4 4 5 5 5 5 6 7 8 8 9 10 10 11
3 4 4 4 4 4 4 5 4 2 1 3 3 2 1 2 2 2 2 3 3 2 2 3 2 2 2 2 3 4 4 5 5 5 6 6 7 8 8 9 10 10 11
3 4 4 4 4 4 5 5 5 5 3 2 3 4 3 3 2 2 2 2 3 3 2 2 3 3 3 3 3 3 4 5 5 5 6 7 7 8 9 10 10 11 11
3 4 4 4 4 4 4 5 4 4 5 4 2 2 2 2 2 1 2 2 3 4 3 3 2 3 4 3 3 3 3 4 4 5 6 7 8 9 9 10 10 11 12
2 3 4 4 4 3 4 5 4 4 4 5 4 3 2 1 2 2 3 2 2 3 3 3 3 3 4 3 3 3 3 3 4 5 6 7 8 9 10 10 11 11 12
2 3 4 4 4 3 4 5 5 5 4 4 4 4 4 4 4 3 4 3 3 2 2 2 3 3 4 4 4 3 3 4 5 5 6 7 8 8 9 10 11 11 11
2 3 4 4 4 4 4 4 4 5 5 5 4 4 4 4 4 3 3 2 2 2 2 1 2 3 3 3 4 3 4 4 5 5 6 7 8 8 9 10 10 11 12
3 3 3 3 4 4 4 4 4 4 4 5 5 4 3 3 4 4 4 3 2 1 2 2 1 3 3 4 4 4 4 4 5 5 5 6 7 8 8 9 10 11 11
2 2 3 3 3 4 4 4 4 4 4 4 4 4 4 3 3 3 3 4 4 3 3 2 2 2 3 3 3 4 4 4 4 5 5 6 7 7 7 8 9 10 11
2 2 2 3 3 3 3 3 3 4 4 4 4 4 4 3 3 3 4 4 3 3 3 2 2 2 2 2 3 3 4 4 4 5 5 6 6 7 8 8 9 9 10
2 2 2 3 3 3 3 3 4 4 4 4 4 4 5 4 4 4 3 3 2 2 3 2 1 1 1 2 2 3 3 3 3 5 5 6 7 7 7 8 8 9 10
2 2 2 2 3 3 3 4 5 4 4 5 5 5 4 3 4 4 4 3 3 3 3 3 2 1 2 2 2 2 2 3 4 5 5 6 6 6 6 7 8 9 9
2 1 1 2 2 3 3 4 4 4 4 4 5 5 5 4 4 4 4 4 3 2 2 3 2 1 2 1 1 1 1 2 3 4 5 5 5 5 6 7 7 8 9
2 1 2 2 2 2 3 2 3 3 4 4 4 4 5 6 5 5 4 4 3 3 2 3 2 2 2 1 1 1 2 1 2 3 4 4 5 6 6 7 7 8 9
2 2 2 2 2 2 2 1 2 2 3 3 3 3 4 5 6 5 4 4 4 3 2 3 3 1 2 1 1 1 2 2 3 2 2 3 4 3 4 6 7 8 9
2 2 2 2 3 3 3 2 1 2 2 3 3 3 3 3 4 4 5 5 5 5 4 3 3 3 3 3 2 1 1 2 2 1 2 4 3 3 3 3 6 8 9
2 2 2 2 3 3 3 2 1 1 2 3 3 3 2 2 2 2 3 3 4 5 6 5 4 4 4 4 3 2 2 2 3 2 2 3 2 3 4 5 8 8 8
2 2 3 2 3 3 3 2 1 1 1 3 3 3 3 3 3 3 3 2 2 2 4 3 4 4 3 4 4 4 3 1 2 2 1 2 2 3 4 5 7 7 8
2 2 3 2 2 3 4 2 1 0 1 1 2 2 3 4 4 4 4 3 2 1 1 1 2 2 2 3 3 2 1 1 2 2 1 1 1 3 3 3 5 7 8
2 2 3 2 2 2 4 3 2 0 1 1 1 1 3 3 4 5 4 4 3 2 1 1 1 2 1 1 1 2 3 2 1 2 1 1 1 2 2 2 3 4 5
Wind_Direction
152 142 134 137 132 135 139 135 132 130 127 123 124 131 129 123 122 110 113 154 197 218 211 211 219 239 256 263 298 345 341 343 352 356 356 349 349 345 341 339 337 336 334
154 146 144 143 142 148 149 146 149 145 140 134 132 138 143 137 131 129 121 166 229 230 226 226 228 240 258 250 274 270 307 325 332 340 348 347 342 334 331 332 330 329 328
156 153 152 150 151 149 145 140 138 134 138 137 146 142 147 142 133 136 143 168 230 260 256 246 245 257 272 269 269 256 290 318 323 328 332 334 333 331 331 326 325 323 323
158 151 154 163 155 144 142 159 164 158 156 159 167 193 155 144 148 166 165 187 194 245 280 267 266 275 285 279 274 265 291 310 317 324 328 329 329 329 329 328 326 325 324
161 154 160 166 158 152 155 174 184 174 170 167 172 187 201 183 192 194 198 214 213 198 205 265 285 295 304 294 282 278 292 305 306 316 322 326 327 326 325 326 326 326 325
168 161 167 169 166 168 173 164 181 162 171 169 165 191 286 242 203 206 217 218 227 209 196 215 276 298 304 301 296 291 298 303 303 309 317 322 322 321 321 322 322 323 324
172 179 176 168 172 185 185 176 173 153 178 161 141 346 313 262 229 230 219 209 235 220 196 205 228 273 300 298 299 295 300 305 305 309 316 318 317 317 318 319 321 323 324
173 189 183 182 182 181 181 184 171 166 222 186 163 166 260 290 260 234 221 211 223 222 210 219 223 242 281 298 299 295 300 303 304 309 313 314 315 314 315 318 320 322 324
189 197 184 184 190 188 194 194 183 180 194 222 197 176 177 221 248 261 229 211 213 221 221 223 223 236 251 268 275 275 297 301 301 306 312 314 315 316 317 318 319 322 325
198 195 186 183 196 199 197 203 195 195 187 207 218 212 203 177 181 255 262 227 221 224 221 225 229 232 239 248 258 268 284 300 308 311 315 316 316 317 318 320 321 323 324
206 207 191 189 198 205 207 200 197 198 201 204 208 192 191 206 205 198 241 246 249 235 221 218 220 227 231 235 236 247 272 292 302 309 311 312 313 315 317 320 321 321 322
232 220 209 200 205 208 214 204 200 199 206 206 212 200 188 184 192 199 220 237 244 255 239 228 216 220 217 217 231 252 268 288 300 305 308 309 311 314 318 319 320 321 323
247 233 219 213 211 208 210 202 200 203 205 204 209 217 205 203 186 192 199 226 247 264 276 246 223 215 214 217 237 252 267 282 295 304 308 309 312 314 315 317 321 325 325
240 236 221 215 215 208 209 203 204 208 206 206 209 206 202 208 196 195 189 190 223 261 256 251 235 222 215 218 244 251 260 273 290 303 309 311 311 313 313 317 323 325 324
242 237 227 220 214 209 208 208 212 210 204 208 209 206 206 207 200 200 194 196 191 214 243 236 230 227 222 228 249 251 256 267 287 298 302 305 307 309 312 317 319 321 322
247 238 238 232 231 221 210 211 217 214 206 212 209 207 212 207 194 198 201 207 204 203 231 239 245 261 258 268 258 252 259 277 290 296 299 306 307 308 310 314 318 321 320
250 247 239 236 238 232 222 217 226 213 209 211 208 206 218 205 198 202 193 193 203 196 220 264 264 260 250 251 271 261 265 264 276 298 301 306 307 304 305 315 319 319 319
267 258 252 254 254 243 226 220 231 221 216 215 212 207 218 206 201 199 190 191 201 209 201 223 260 252 253 246 248 265 287 281 277 290 300 310 312 309 309 313 317 323 326
291 286 292 277 272 266 248 236 229 219 219 223 216 211 214 203 208 202 197 194 198 208 198 193 233 255 264 250 261 290 296 297 294 295 301 310 316 317 318 321 326 328 328
300 304 296 276 270 274 267 252 220 218 215 218 216 213 213 205 202 198 199 195 189 191 186 187 212 242 255 248 196 267 311 311 314 315 309 309 314 323 326 328 327 326 326
315 311 306 296 285 276 271 256 218 220 210 214 216 221 220 213 209 203 199 190 185 190 195 203 210 231 249 232 241 241 290 320 314 302 317 317 317 321 324 319 319 321 322
334 332 322 309 297 293 299 291 266 230 220 212 216 221 224 212 212 211 207 202 196 196 205 212 222 228 237 231 227 239 273 314 300 294 325 309 313 301 304 305 306 313 317
342 335 326 320 303 296 313 317 291 241 225 218 211 207 221 219 206 197 205 215 224 226 219 214 216 231 229 217 208 224 233 258 272 268 304 292 300 291 297 297 305 310 318
335 323 318 312 310 320 330 321 303 292 255 226 213 204 208 212 205 187 178 194 241 249 246 230 222 227 234 216 203 207 213 255 300 281 253 274 290 295 307 301 303 312 321
333 326 324 324 326 328 339 333 338 299 285 252 229 214 209 206 203 184 171 189 228 270 316 267 269 262 253 242 189 153 168 213 296 281 241 234 278 311 301 294 307 319 326
330 328 334 340 329 318 341 350 353 293 290 260 227 239 233 219 206 193 181 183 204 231 173 55 15 12 6 284 232 192 189 205 262 263 227 212 273 325 314 293 312 328 330
Height
1500 1502 1503 1504 1505 1507 1508 1510 1511 1512 1514 1515 1516 1517 1518 1519 1520 1521 1521 1522 1522 1523 1523 1523 1524 1524 1524 1524 1524 1523 1523 1523 1523 1522 1521 1521 1520 1519 1517 1516 1515 1513 1512
1497 1498 1500 1501 1503 1504 1506 1507 1508 1509 1511 1512 1513 1514 1516 1517 1517 1518 1519 1520 1520 1520 1521 1521 1521 1522 1522 1522 1521 1521 1521 1521 1521 1520 1519 1518 1517 1516 1515 1514 1512 1511 1509
1494 1496 1497 1498 1500 1501 1503 1504 1505 1506 1508 1509 1510 1511 1513 1514 1515 1516 1516 1517 1517 1518 1518 1519 1519 1519 1520 1520 1519 1519 1519 1519 1518 1518 1517 1516 1515 1514 1512 1511 1510 1508 1506
1491 1493 1494 1496 1497 1498 1500 1501 1502 1503 1504 1506 1507 1508 1510 1511 1512 1513 1514 1514 1515 1515 1515 1516 1516 1517 1517 1517 1517 1517 1517 1516 1516 1515 1514 1513 1512 1511 1510 1508 1507 1505 1504
1488 1489 1491 1492 1494 1495 1496 1498 1498 1499 1501 1503 1504 1505 1506 1508 1509 1510 1510 1511 1512 1512 1512 1513 1513 1514 1514 1514 1514 1514 1514 1514 1513 1513 1512 1511 1509 1508 1507 1505 1504 1502 1501
1484 1486 1488 1489 1491 1492 1493 1495 1496 1496 1498 1500 1501 1502 1503 1504 1505 1506 1507 1508 1508 1509 1509 1510 1510 1511 1511 1511 1511 1511 1511 1511 1510 1510 1509 1508 1506 1505 1504 1502 1501 1499 1497
1481 1483 1484 1485 1487 1488 1489 1491 1493 1493 1494 1496 1498 1498 1500 1500 1501 1502 1503 1504 1505 1506 1506 1507 1507 1508 1508 1508 1508 1508 1508 1508 1507 1507 1506 1505 1503 1502 1501 1499 1498 1496 1494
1478 1479 1480 1481 1483 1485 1486 1488 1489 1489 1492 1493 1494 1495 1496 1497 1497 1498 1499 1500 1501 1502 1503 1503 1504 1504 1505 1505 1504 1505 1504 1504 1504 1503 1503 1502 1500 1499 1498 1496 1494 1492 1490
1475 1476 1477 1478 1480 1481 1482 1483 1485 1486 1488 1489 1491 1492 1492 1491 1493 1494 1495 1496 1497 1498 1499 1500 1500 1501 1501 1501 1501 1501 1501 1501 1500 1500 1499 1498 1497 1496 1494 1493 1491 1489 1487
1472 1473 1474 1475 1476 1477 1479 1480 1481 1483 1484 1485 1487 1488 1489 1488 1489 1490 1491 1492 1493 1494 1495 1496 1497 1497 1497 1497 1497 1497 1497 1497 1497 1496 1495 1494 1493 1492 1490 1489 1487 1485 1483
1468 1469 1470 1472 1473 1474 1475 1476 1477 1479 1480 1482 1483 1483 1484 1485 1486 1487 1487 1488 1489 1491 1491 1492 1493 1493 1494 1494 1493 1493 1493 1493 1493 1492 1491 1490 1489 1488 1486 1485 1483 1481 1479
1464 1465 1467 1468 1469 1470 1471 1471 1473 1474 1476 1477 1479 1479 1480 1481 1482 1484 1483 1483 1484 1486 1487 1488 1489 1489 1490 1490 1489 1489 1490 1489 1489 1488 1487 1486 1485 1484 1482 1481 1479 1477 1475
1460 1461 1463 1464 1465 1466 1467 1467 1468 1470 1471 1473 1474 1475 1476 1477 1479 1480 1480 1480 1480 1481 1482 1483 1484 1485 1485 1486 1486 1486 1486 1485 1485 1484 1483 1482 1481 1480 1478 1477 1475 1473 1471
1457 1458 1459 1460 1461 1462 1463 1463 1465 1466 1467 1468 1469 1470 1472 1473 1475 1476 1476 1477 1477 1477 1478 1479 1480 1481 1481 1482 1481 1482 1482 1482 1481 1480 1479 1478 1477 1476 1474 1473 1471 1469 1467
1453 1454 1455 1456 1457 1458 1459 1460 1460 1462 1463 1464 1465 1466 1468 1469 1470 1472 1473 1473 1474 1473 1472 1473 1476 1477 1477 1478 1478 1478 1478 1478 1477 1477 1476 1475 1473 1472 1470 1469 1467 1465 1463
1450 1450 1451 1452 1453 1453 1454 1456 1457 1458 1459 1460 1461 1462 1464 1465 1466 1468 1469 1470 1470 1470 1469 1469 1471 1473 1474 1474 1474 1474 1474 1474 1473 1473 1472 1471 1469 1468 1466 1465 1463 1461 1459
1447 1447 1447 1449 1449 1449 1450 1451 1453 1454 1454 1455 1457 1458 1460 1461 1462 1464 1465 1465 1466 1467 1466 1466 1468 1469 1470 1470 1470 1470 1470 1470 1469 1469 1468 1466 1465 1463 1462 1461 1459 1457 1455
1444 1444 1444 1445 1445 1446 1446 1447 1448 1449 1450 1451 1452 1454 1455 1457 1458 1460 1461 1461 1462 1463 1463 1462 1464 1465 1466 1466 1466 1466 1466 1466 1466 1465 1464 1463 1461 1459 1458 1457 1455 1453 1451
1441 1441 1441 1441 1442 1442 1443 1443 1444 1445 1446 1447 1448 1450 1451 1452 1454 1455 1457 1457 1459 1460 1460 1460 1460 1461 1462 1462 1462 1462 1462 1462 1462 1461 1460 1459 1458 1456 1455 1453 1451 1449 1447
1438 1438 1438 1439 1439 1439 1439 1439 1439 1441 1442 1443 1444 1446 1447 1448 1450 1451 1453 1453 1455 1456 1456 1456 1457 1457 1458 1458 1458 1458 1457 1458 1458 1457 1457 1456 1454 1453 1452 1450 1448 1446 1444
1435 1435 1435 1435 1436 1436 1435 1436 1436 1437 1438 1439 1441 1442 1443 1444 1446 1447 1449 1450 1451 1451 1452 1452 1453 1453 1454 1454 1454 1454 1453 1453 1453 1453 1452 1452 1451 1449 1448 1447 1445 1443 1440
1433 1433 1433 1433 1433 1433 1433 1433 1433 1434 1435 1436 1437 1438 1439 1441 1442 1444 1445 1446 1448 1448 1448 1449 1449 1449 1449 1450 1450 1450 1450 1450 1449 1450 1449 1448 1448 1446 1445 1443 1442 1440 1438
1430 1430 1430 1430 1430 1430 1430 1430 1430 1431 1432 1433 1433 1434 1435 1437 1438 1440 1441 1443 1444 1445 1446 1446 1445 1446 1446 1447 1447 1447 1447 1447 1446 1446 1446 1444 1444 1442 1442 1440 1439 1437 1435
1428 1428 1428 1427 1427 1427 1427 1428 1428 1428 1429 1429 1430 1431 1432 1433 1435 1436 1438 1439 1440 1441 1442 1442 1443 1443 1444 1444 1444 1445 1444 1444 1444 1444 1443 1441 1440 1439 1438 1437 1436 1434 1432
1426 1426 1426 1425 1424 1424 1425 1425 1426 1426 1426 1427 1427 1428 1429 1430 1432 1433 1435 1436 1437 1438 1439 1440 1440 1441 1441 1441 1442 1442 1441 1440 1439 1440 1440 1438 1436 1435 1434 1433 1432 1431 1429
1424 1424 1424 1423 1422 1422 1422 1423 1423 1423 1423 1424 1425 1425 1426 1427 1428 1430 1431 1432 1433 1435 1436 1436 1437 1438 1438 1438 1439 1439 1438 1438 1437 1436 1436 1436 1434 1433 1431 1430 1429 1428 1426